Boonton, New Jersey, United States (07005)
Lat: 40.90N, Lon: 74.41W
Wx Zone: NJZ008
Local Info
Past Weather Observations for Sunday, July 5, 2015

NOTE: This archive is for the closest National Weather Service station to Boonton. Information may differ from the station used for current weather conditions.

Click here for Long-term Archive

Time Weather Temperature Dewpoint Humidity Pressure Winds Precip Visibility
23:53
Clear
68°F / 20°C 63°F / 17°C 83% 30.15 in
(1021 mb)
Calm - 10SM
22:53
Clear
68°F / 20°C 63°F / 17°C 83% 30.15 in
(1021 mb)
Calm - 10SM
21:53
Clear
72°F / 22°C 63°F / 17°C 73% 30.15 in
(1021 mb)
Calm - 10SM
20:53
Clear
73°F / 23°C 63°F / 17°C 69% 30.15 in
(1021 mb)
Calm - 10SM
19:53
Clear
77°F / 25°C 63°F / 17°C 61% 30.12 in
(1020 mb)
SW 3.5 mph
(SW 6 kph)
- 10SM
18:53
Clear
79°F / 26°C 63°F / 17°C 58% 30.12 in
(1020 mb)
SW 3.5 mph
(SW 6 kph)
- 10SM
17:53
Clear
81°F / 27°C 61°F / 16°C 51% 30.09 in
(1019 mb)
SW 3.5 mph
(SW 6 kph)
- 10SM
16:53
Clear
82°F / 28°C 59°F / 15°C 45% 30.09 in
(1019 mb)
Calm - 10SM
15:53
Partly Cloudy
82°F / 28°C 61°F / 16°C 48% 30.09 in
(1019 mb)
SSE 5.8 mph
(SSE 9 kph)
- 10SM
14:53
Partly Cloudy
82°F / 28°C 61°F / 16°C 48% 30.09 in
(1019 mb)
Variable 4.6 mph
(Variable 7 kph)
- 10SM
13:53
Clear
82°F / 28°C 63°F / 17°C 51% 30.12 in
(1020 mb)
SW 4.6 mph
(SW 7 kph)
- 10SM
12:53
Partly Cloudy
81°F / 27°C 63°F / 17°C 54% 30.12 in
(1020 mb)
Calm - 10SM
11:53
Mostly Cloudy
77°F / 25°C 63°F / 17°C 61% 30.12 in
(1020 mb)
S 4.6 mph
(S 7 kph)
- 10SM
10:53
Clear
77°F / 25°C 63°F / 17°C 61% 30.12 in
(1020 mb)
Calm - 10SM
09:53
Clear
75°F / 24°C 61°F / 16°C 61% 30.15 in
(1021 mb)
NW 6.9 mph
(NW 11 kph)
- 10SM
08:53
Partly Cloudy
73°F / 23°C 61°F / 16°C 65% 30.15 in
(1021 mb)
NW 4.6 mph
(NW 7 kph)
- 10SM
08:12
Partly Cloudy
72°F / 22°C 61°F / 16°C 69% 30.12 in
(1020 mb)
NNW 5.8 mph
(NNW 9 kph)
- 10SM
08:04
Mostly Cloudy
72°F / 22°C 61°F / 16°C 69% 30.15 in
(1021 mb)
Variable 5.8 mph
(Variable 9 kph)
- 10SM
07:53
Partly Cloudy
70°F / 21°C 61°F / 16°C 73% 30.12 in
(1020 mb)
W 3.5 mph
(W 6 kph)
- 10SM
07:37
Partly Cloudy
70°F / 21°C 61°F / 16°C 73% 30.12 in
(1020 mb)
WNW 5.8 mph
(WNW 9 kph)
- 10SM
07:29
Mostly Cloudy
70°F / 21°C 61°F / 16°C 73% 30.12 in
(1020 mb)
Calm - 9SM
07:05
Partly Cloudy
68°F / 20°C 61°F / 16°C 78% 30.12 in
(1020 mb)
Calm - 9SM
06:53
Clear
68°F / 20°C 59°F / 15°C 73% 30.12 in
(1020 mb)
Variable 4.6 mph
(Variable 7 kph)
- 9SM
05:53
Clear
Hazy
64°F / 18°C 59°F / 15°C 83% 30.09 in
(1019 mb)
Calm - 6SM
04:53
Clear
Fog And Mist
63°F / 17°C 59°F / 15°C 88% 30.09 in
(1019 mb)
Calm - 5SM
03:53
Overcast
Fog And Mist
63°F / 17°C 59°F / 15°C 88% 30.06 in
(1018 mb)
Calm - 6SM
02:53
Overcast
Fog And Mist
63°F / 17°C 59°F / 15°C 88% 30.06 in
(1018 mb)
Calm - 6SM
01:53
Partly Cloudy
Fog And Mist
63°F / 17°C 57°F / 14°C 83% 30.06 in
(1018 mb)
Calm - 6SM
00:53
Partly Cloudy
63°F / 17°C 59°F / 15°C 88% 30.06 in
(1018 mb)
Calm - 7SM
Time Weather Temperature Dewpoint Humidity Pressure Winds Precip Visibility


Weather for websites

WeatherForYou.com, LLC is not responsible for any damages or problems caused by this service. Current weather conditions are obtained from the closest station including government and personal stations which may have varying degrees of accuracy. Weather forecasts are derived from the NOAA NDFD. Like all things, this site belongs to Jesus Christ... He just trusts us to maintain it. If you have any questions or comments email webmaster@weatherforyou.com

Copyright © 2015, WeatherForYou.com LLC. All rights reserved.